FW3005 Weather Reports


Display with metric or nautical units.
time (UTC)temp
F
wind
direction
speed
MPH
gust
MPH
rain 1hr
in
rain 24hr
in
rain mn
in
humidity
%
barometer
mb
20260509100016 49 148 0.0 2.0 0.00 0.00 0.00 90 1004.9
20260509094516 49 170 0.0 2.0 0.00 0.00 0.00 91 1005.0
20260509093013 49 185 0.0 4.0 0.00 0.00 0.00 91 1005.1
20260509091511 49 161 0.0 2.0 0.00 0.00 0.00 90 1005.3
20260509090011 49 155 0.0 1.0 0.00 0.00 0.00 90 1005.2
20260509084510 49 193 0.0 1.0 0.00 0.00 0.00 90 1005.1
20260509083011 49 147 1.0 3.0 0.00 0.00 0.00 90 1005.1
20260509081508 49 226 0.0 1.0 0.00 0.00 0.00 90 1005.2
20260509080005 49 141 0.0 2.0 0.00 0.00 0.00 89 1005.2
20260509074504 49 150 0.0 1.0 0.00 0.00 0.00 89 1005.5
20260509073007 49 145 0.0 1.0 0.00 0.00 0.00 89 1005.5
20260509071603 50 152 0.0 0.0 0.00 0.00 0.00 88 1005.6
20260509070059 50 148 0.0 1.0 0.00 0.00 0.00 88 1005.5
20260509064559 50 137 0.0 1.0 0.00 0.00 0.00 88 1005.8
20260509063102 51 166 0.0 0.0 0.00 0.00 0.00 88 1005.9
20260509061553 51 177 0.0 2.0 0.00 0.00 0.00 88 1006.1
20260509060109 51 170 0.0 1.0 0.00 0.00 0.00 88 1006.2
20260509054552 51 148 0.0 0.0 0.00 0.00 0.00 87 1006.1
20260509053100 52 209 0.0 1.0 0.00 0.00 0.00 87 1006.3
20260509051548 52 152 0.0 1.0 0.00 0.00 0.00 86 1006.1
20260509050044 53 149 0.0 1.0 0.00 0.00 0.00 85 1006.4
20260509044542 53 210 0.0 1.0 0.00 0.00 0.00 85 1006.5
20260509043050 54 179 0.0 3.0 0.00 0.00 0.00 84 1006.6
20260509041541 54 172 0.0 1.0 0.00 0.00 0.00 83 1006.6
20260509040058 55 220 0.0 2.0 0.00 0.00 0.00 82 1006.8
20260509034540 55 146 0.0 1.0 0.00 0.00 0.00 81 1006.9
20260509033101 55 213 0.0 1.0 0.00 0.00 0.00 80 1006.8
20260509031539 56 150 0.0 1.0 0.00 0.00 0.00 79 1006.9
20260509030040 56 151 0.0 3.0 0.00 0.00 0.00 78 1007.0
20260509024544 57 168 0.0 2.0 0.00 0.00 0.00 78 1007.1
20260509023038 57 243 0.0 1.0 0.00 0.00 0.00 77 1007.0
20260509021537 58 163 0.0 4.0 0.00 0.00 0.00 77 1007.1
20260509020037 58 180 0.0 3.0 0.00 0.00 0.00 76 1006.9
20260509014537 59 207 0.0 7.0 0.00 0.01 0.00 75 1006.7
20260509013036 60 159 0.0 3.0 0.00 0.01 0.00 73 1006.8
20260509011539 60 229 1.0 6.0 0.00 0.01 0.00 70 1006.7
20260509010038 61 153 0.0 0.0 0.00 0.01 0.00 69 1006.6
20260509004534 62 155 0.0 0.0 0.00 0.01 0.00 67 1006.5
20260509003035 62 172 0.0 0.0 0.00 0.01 0.00 66 1006.4
20260509001533 64 280 0.0 4.0 0.00 0.01 0.00 65 1006.5
20260509000032 65 243 0.0 2.0 0.00 0.01 0.00 62 1006.6
20260508234532 66 128 0.0 3.0 0.00 0.09 0.00 62 1006.5
20260508233036 66 288 0.0 3.0 0.00 0.09 0.00 63 1006.5
20260508231531 66 207 0.0 5.0 0.00 0.09 0.00 63 1006.5
20260508230030 66 272 0.0 5.0 0.00 0.09 0.00 64 1006.5
20260508224529 66 136 3.0 7.0 0.00 0.09 0.00 62 1006.6
20260508223030 66 230 0.0 7.0 0.00 0.09 0.00 61 1006.7
20260508221526 66 159 0.0 7.0 0.00 0.09 0.00 61 1006.7
20260508220025 67 153 0.0 6.0 0.00 0.09 0.00 60 1006.7
20260508214527 68 283 0.0 3.0 0.00 0.09 0.00 57 1006.7
20260508213022 67 172 1.0 6.0 0.00 0.09 0.00 60 1006.9
20260508211521 67 281 1.0 4.0 0.00 0.09 0.00 58 1006.9
20260508210031 67 148 0.0 6.0 0.00 0.09 0.00 59 1007.1
20260508204519 66 165 2.0 7.0 0.00 0.09 0.00 60 1007.1
20260508203016 67 249 0.0 5.0 0.00 0.09 0.00 60 1007.4
20260508201514 67 134 2.0 6.0 0.00 0.09 0.00 56 1007.7
20260508200014 68 218 1.0 5.0 0.00 0.09 0.00 57 1008.1
20260508194510 67 151 3.0 7.0 0.00 0.09 0.00 59 1008.2
20260508193007 66 173 1.0 4.0 0.00 0.09 0.00 60 1008.2
20260508191503 65 118 0.0 5.0 0.00 0.09 0.00 62 1008.4
20260508190004 65 122 0.0 8.0 0.00 0.09 0.00 62 1008.6
20260508184615 65 82 0.0 4.0 0.00 0.09 0.00 62 1008.9
20260508183101 65 201 0.0 4.0 0.00 0.09 0.00 62 1009.0
20260508181604 65 211 1.0 3.0 0.00 0.09 0.00 61 1009.1
20260508180105 64 208 1.0 3.0 0.00 0.09 0.00 64 1009.2
20260508174554 65 125 0.0 4.0 0.00 0.09 0.00 62 1009.5
20260508173053 65 109 1.0 4.0 0.00 0.09 0.00 63 1009.9
20260508171548 63 240 0.0 5.0 0.00 0.09 0.00 70 1010.2
20260508170047 62 109 1.0 6.0 0.00 0.09 0.00 67 1010.2
20260508164544 62 146 1.0 6.0 0.00 0.09 0.00 69 1010.4
20260508163057 62 181 1.0 4.0 0.00 0.09 0.00 68 1010.6
20260508161552 62 268 1.0 8.0 0.00 0.09 0.00 69 1010.7
20260508160037 61 276 1.0 5.0 0.00 0.09 0.00 71 1010.9
20260508154535 60 146 0.0 5.0 0.00 0.09 0.00 73 1011.0
20260508153051 59 295 1.0 6.0 0.00 0.09 0.00 74 1011.1
20260508151533 61 167 0.0 4.0 0.00 0.09 0.00 74 1011.1
20260508150030 60 278 2.0 5.0 0.00 0.09 0.00 75 1011.2
20260508144526 58 173 2.0 5.0 0.00 0.09 0.00 77 1011.2
20260508143025 57 210 0.0 4.0 0.00 0.09 0.00 79 1011.4
20260508141520 56 269 1.0 5.0 0.00 0.09 0.00 81 1011.4
20260508140016 54 147 0.0 6.0 0.00 0.09 0.00 82 1011.7
20260508134516 53 156 0.0 4.0 0.00 0.09 0.00 82 1011.5
20260508133011 52 162 0.0 4.0 0.00 0.09 0.00 84 1011.7
20260508131508 51 158 0.0 2.0 0.00 0.09 0.00 84 1011.7
20260508130007 50 153 0.0 1.0 0.00 0.09 0.00 84 1011.7
20260508124501 50 152 0.0 2.0 0.00 0.09 0.00 86 1011.9
20260508123059 49 154 0.0 2.0 0.00 0.09 0.00 88 1011.9
20260508121555 47 124 0.0 0.0 0.00 0.09 0.00 88 1012.0
20260508120101 46 124 0.0 0.0 0.00 0.09 0.00 88 1011.9
20260508114600 46 147 0.0 0.0 0.00 0.09 0.00 89 1011.4
20260508113058 46 147 0.0 0.0 0.00 0.09 0.00 89 1011.5
20260508111551 45 147 0.0 0.0 0.00 0.09 0.00 90 1011.4
20260508110056 45 147 0.0 0.0 0.00 0.09 0.00 89 1011.4
20260508104549 45 147 0.0 0.0 0.00 0.09 0.00 90 1011.5
20260508103051 44 147 0.0 0.0 0.00 0.09 0.00 89 1011.5
20260508101551 44 147 0.0 0.0 0.00 0.09 0.00 89 1011.3